This demonstration page uses our WeatherBlox Daily Observations layout. Learn more.

40.92945, -100.16068

Hourly Observations for December 28, 2015

Temp ( °F °C ) Dew Point ( °F °C ) Humidity (%) Winds ( mph kmh ) Pressure ( in mb ) Visibility ( mi km ) Precip ( " mm )
12:15 am 00:15 Clear 16 -9 12 -11 86 86 NNE 8 13 30.48 1032 10 16.09344 0 0
12:35 am 00:35 Clear 16 -9 12 -11 86 86 NNE 8 13 30.45 1031 10 16.09344 0 0
12:55 am 00:55 Clear 16 -9 12 -11 86 86 NE 5 7 30.45 1031 10 16.09344 0 0
1:15 am 01:15 Clear 18 -8 12 -11 79 79 Calm 30.42 1030 10 16.09344 0 0
1:35 am 01:35 Clear 18 -8 12 -11 79 79 NE 3 6 30.42 1030 10 16.09344 0 0
1:55 am 01:55 Clear 18 -8 12 -11 79 79 NNE 5 7 30.39 1029 10 16.09344 0 0
2:15 am 02:15 Clear 18 -8 12 -11 79 79 NNE 6 9 30.36 1028 10 16.09344 0 0
2:35 am 02:35 Clear 16 -9 12 -11 86 86 NE 3 6 30.36 1028 10 16.09344 0 0
2:55 am 02:55 Clear 18 -8 12 -11 79 79 ENE 6 9 30.36 1028 10 16.09344 0 0
3:15 am 03:15 Clear 16 -9 10 -12 79 79 ENE 5 7 30.36 1028 10 16.09344 0 0
3:35 am 03:35 Clear 16 -9 10 -12 79 79 NE 7 11 30.36 1028 10 16.09344 0 0
3:55 am 03:55 Clear 16 -9 10 -12 79 79 NNE 8 13 30.3 1026 10 16.09344 0 0
4:15 am 04:15 Clear 16 -9 10 -12 79 79 NNE 9 15 30.3 1026 10 16.09344 0 0
4:55 am 04:55 Partly Cloudy 16 -9 10 -12 79 79 NNE 7 11 30.3 1026 10 16.09344 0 0
5:15 am 05:15 Mostly Cloudy 16 -9 10 -12 79 79 NE 10 17 30.3 1026 10 16.09344 0 0
5:35 am 05:35 Partly Cloudy 16 -9 10 -12 79 79 NE 7 11 30.27 1025 10 16.09344 0 0
5:55 am 05:55 Mostly Cloudy 16 -9 10 -12 79 79 N 8 13 30.27 1025 10 16.09344 0 0
6:15 am 06:15 Mostly Cloudy 16 -9 10 -12 79 79 N 8 13 30.27 1025 10 16.09344 0 0
6:35 am 06:35 Partly Cloudy 16 -9 10 -12 79 79 N 10 17 30.24 1024 10 16.09344 0 0
6:55 am 06:55 Partly Cloudy 16 -9 10 -12 79 79 N 9 15 30.24 1024 10 16.09344 0 0
7:15 am 07:15 Cloudy 16 -9 10 -12 79 79 N 8 13 30.24 1024 10 16.09344 0 0
7:35 am 07:35 Mostly Cloudy 16 -9 9 -13 73 73 N 9 15 30.24 1024 10 16.09344 0 0
7:55 am 07:55 Clear 14 -10 9 -13 79 79 N 12 19 30.24 1024 10 16.09344 0 0
8:15 am 08:15 Sunny 14 -10 9 -13 79 79 N 10 17 30.24 1024 10 16.09344 0 0
8:35 am 08:35 Sunny 12 -11 9 -13 85 85 N 10 17 30.27 1025 10 16.09344 0 0
8:55 am 08:55 Mostly Cloudy 14 -10 9 -13 79 79 N 9 15 30.21 1023 10 16.09344 0 0
9:15 am 09:15 Cloudy 14 -10 9 -13 79 79 N 8 13 30.21 1023 10 16.09344 0 0
9:35 am 09:35 Cloudy 16 -9 10 -12 79 79 N 9 15 30.21 1023 10 16.09344 0 0
9:55 am 09:55 Cloudy 16 -9 10 -12 79 79 N 10 17 30.21 1023 10 16.09344 0 0
10:15 am 10:15 Cloudy 16 -9 10 -12 79 79 NNE 9 15 30.21 1023 10 16.09344 0 0
10:35 am 10:35 Cloudy 16 -9 10 -12 79 79 NNE 8 13 30.21 1023 10 16.09344 0 0
10:55 am 10:55 Cloudy 18 -8 10 -12 73 73 N 8 13 30.21 1023 10 16.09344 0 0
11:15 am 11:15 Cloudy 18 -8 10 -12 73 73 N 10 17 30.15 1021 10 16.09344 0 0
11:35 am 11:35 Cloudy 18 -8 10 -12 73 73 N 10 17 30.15 1021 10 16.09344 0 0
11:55 am 11:55 Cloudy 18 -8 10 -12 73 73 N 10 17 30.12 1020 10 16.09344 0 0
12:15 pm 12:15 Cloudy 18 -8 12 -11 79 79 NNE 10 17 30.12 1020 10 16.09344 0 0
12:35 pm 12:35 Cloudy 18 -8 12 -11 79 79 N 10 17 30.09 1019 10 16.09344 0 0
12:55 pm 12:55 Cloudy 19 -7 12 -11 73 73 N 9 15 30.09 1019 10 16.09344 0 0
1:15 pm 13:15 Cloudy 19 -7 14 -10 79 79 NNW 10 17 30.06 1018 10 16.09344 0 0
1:35 pm 13:35 Cloudy 19 -7 14 -10 79 79 N 10 17 30.06 1018 10 16.09344 0 0
1:55 pm 13:55 Mostly Cloudy 21 -6 16 -9 80 80 NNW 10 17 30 1016 10 16.09344 0 0
2:15 pm 14:15 Cloudy 21 -6 16 -9 80 80 NNW 9 15 30 1016 10 16.09344 0 0
2:35 pm 14:35 Cloudy 21 -6 16 -9 80 80 N 10 17 30 1016 10 16.09344 0 0
2:55 pm 14:55 Cloudy 23 -5 18 -8 80 80 N 13 20 29.97 1015 10 16.09344 0 0
3:15 pm 15:15 Cloudy 23 -5 18 -8 80 80 N 10 17 29.97 1015 10 16.09344 0 0
3:35 pm 15:35 Cloudy 21 -6 16 -9 80 80 N 8 13 29.97 1015 10 16.09344 0 0
3:55 pm 15:55 Partly Cloudy 21 -6 16 -9 80 80 N 7 11 29.97 1015 10 16.09344 0 0
4:15 pm 16:15 Sunny 23 -5 18 -8 80 80 N 8 13 29.97 1015 10 16.09344 0 0
4:35 pm 16:35 Sunny 23 -5 18 -8 80 80 N 9 15 29.97 1015 10 16.09344 0 0
4:55 pm 16:55 Sunny 21 -6 16 -9 80 80 N 9 15 29.97 1015 10 16.09344 0 0
5:15 pm 17:15 Sunny 21 -6 16 -9 80 80 N 7 11 30 1016 10 16.09344 0 0
5:35 pm 17:35 Mostly Cloudy 19 -7 16 -9 86 86 NNW 6 9 30.03 1017 10 16.09344 0 0
5:55 pm 17:55 Cloudy 21 -6 16 -9 80 80 N 8 13 30 1016 10 16.09344 0 0
6:15 pm 18:15 Cloudy 21 -6 16 -9 80 80 N 7 11 29.97 1015 10 16.09344 0 0
6:35 pm 18:35 Cloudy 21 -6 16 -9 80 80 N 6 9 29.97 1015 10 16.09344 0 0
6:55 pm 18:55 Cloudy 21 -6 16 -9 80 80 N 8 13 30 1016 10 16.09344 0 0
7:15 pm 19:15 Cloudy 21 -6 16 -9 80 80 NW 3 6 30 1016 10 16.09344 0 0
7:35 pm 19:35 Cloudy 19 -7 16 -9 86 86 WNW 5 7 30.03 1017 10 16.09344 0 0
7:55 pm 19:55 Cloudy 21 -6 16 -9 80 80 WNW 6 9 30 1016 10 16.09344 0 0
8:15 pm 20:15 Cloudy 19 -7 16 -9 86 86 NW 7 11 30.06 1018 10 16.09344 0 0
8:35 pm 20:35 Cloudy 19 -7 16 -9 86 86 NW 7 11 30.03 1017 10 16.09344 0 0
8:55 pm 20:55 Cloudy 19 -7 14 -10 79 79 NNW 8 13 30.06 1018 10 16.09344 0 0
9:15 pm 21:15 Cloudy 19 -7 14 -10 79 79 NW 7 11 30.06 1018 10 16.09344 0 0
9:35 pm 21:35 Cloudy 19 -7 14 -10 79 79 NW 7 11 30.06 1018 10 16.09344 0 0
9:55 pm 21:55 Cloudy 19 -7 14 -10 79 79 NW 7 11 30.06 1018 10 16.09344 0 0
10:15 pm 22:15 Cloudy 19 -7 14 -10 79 79 NW 7 11 30.06 1018 10 16.09344 0 0
10:35 pm 22:35 Cloudy 19 -7 14 -10 79 79 NW 7 11 30.06 1018 10 16.09344 0 0
10:55 pm 22:55 Cloudy 19 -7 16 -9 86 86 NW 6 9 30.09 1019 10 16.09344 0 0
11:15 pm 23:15 Cloudy 19 -7 16 -9 86 86 NNW 7 11 30.09 1019 10 16.09344 0 0
11:35 pm 23:35 Cloudy 21 -6 16 -9 80 80 NNW 7 11 30.09 1019 10 16.09344 0 0
11:55 pm 23:55 Cloudy 21 -6 16 -9 80 80 NW 6 9 30.09 1019 10 16.09344 0 0

Powered by AerisWeather